Location: Unspecified
(0.0000°N, 0.0000°E)
Time: 10:34:15
(UTC+00:00)

Vanguard 1 - Pass Details

Date: 14 December 2017
Orbit: 650 x 3833 km, 34.3° (Epoch: 22 June)

Event Time Altitude Azimuth Distance (km) Brightness Sun altitude
Rises 03:56:17 0° 222° (SW) 6,007 13.9 -27.0°
Reaches altitude 10° 03:59:50 10° 217° (SW) 5,356 13.7 -26.2°
Maximum altitude 04:17:21 56° 141° (SE) 4,004 13.3 -22.2°
Drops below altitude 10° 04:40:12 10° 68° (ENE) 6,813 14.9 -17.0°
Sets 04:45:21 0° 64° (ENE) 7,659 15.2 -15.9°
